Location: Nied?wied?
(53.3665°N, 14.8184°E)
Time: 00:29:46
(UTC+00:00)

Okean 1-7 - Pass Details

Date: 03 March 2021
Orbit: 590 x 619 km, 82.5° (Epoch: 11 April)

Event Time Altitude Azimuth Distance (km) Brightness Sun altitude
Rises 17:55:43 0° 351° (N) 2,904 6.7 -11.7°
Reaches altitude 10° 17:58:00 10° 356° (N) 1,990 5.8 -12.0°
Maximum altitude 18:02:20 56° 75° (ENE) 735 3.1 -12.6°
Drops below altitude 10° 18:06:36 10° 154° (SSE) 1,958 5.3 -13.3°
Sets 18:08:50 0° 159° (SSE) 2,852 6.2 -13.6°
Enters shadow 18:08:51 - 159° (SSE) 2,861 6.2 -13.6°
